Caslav, Czech Republic

6:10 PM CEST on August 20, 2017 (GMT +0200)
Caslav

Weather History for LKCV - February, 2013

Change the Weather History Date:

Friday, February 1, 2013

  Actual Average Record
Temperature  
Mean Temperature 42 °F -  
Max Temperature 46 °F - - ()
Min Temperature 37 °F - - ()
Degree Days  
Heating Degree Days 24    
Moisture  
Dew Point 36 °F    
Average Humidity 80    
Maximum Humidity 93    
Minimum Humidity 66    
Precipitation  
Precipitation 0.00 in - - ()
Sea Level Pressure  
Sea Level Pressure 29.66 in    
Wind  
Wind Speed 11 mph ()    
Max Wind Speed 18 mph    
Max Gust Speed 31 mph    
Visibility 6.2 miles    
Events Rain    
T = Trace of Precipitation, MM = Missing Value Source: Averaged Metar Reports

Daily Weather History Graph

Daily Weather History Graph

Search for Another Location

Airport or City:

Trip Planner

Search our weather history database for the weather conditions in past years. The results will help you decide how hot, cold, wet, or windy it might be!

Date:

Astronomy

Feb. 01, 2013 Rise Set
Actual Time 7:31 AM CET 4:53 PM CET
Civil Twilight 6:56 AM CET 5:27 PM CET
Nautical Twilight 6:18 AM CET 6:06 PM CET
Astronomical Twilight 5:40 AM CET 6:44 PM CET
Moon 11:22 PM CET (2/1) 9:17 AM CET (2/1)
Length of Visible Light 10h 30m
Length of Day
9h 21m
Waning Gibbous, 73% of the Moon is Illuminated
Feb 1
Waning Gibbous
Feb 3
Last Quarter
Feb 10
New
Feb 17
First Quarter
Feb 25
Full

Hourly Weather History & Observations

Time (CET) Temp. Windchill Dew Point Humidity Pressure Visibility Wind Dir Wind Speed Gust Speed Precip Events Conditions
12:00 AM 37.4 °F 30.3 °F 35.6 °F 93% 29.80 in 6.2 mi West 10.4 mph - N/A   Mostly Cloudy
1:00 AM 39.2 °F 32.5 °F 35.6 °F 87% 29.80 in 6.2 mi West 10.4 mph - N/A   Scattered Clouds
2:00 AM 37.4 °F 30.8 °F 35.6 °F 93% 29.80 in - WSW 9.2 mph - N/A   Clear
3:00 AM 41.0 °F 33.1 °F 35.6 °F 81% 29.80 in 6.2 mi WSW 15.0 mph - N/A Rain Light Rain
4:00 AM 39.2 °F 29.8 °F 35.6 °F 87% 29.80 in - West 18.4 mph - N/A   Clear
5:00 AM 39.2 °F 31.6 °F 33.8 °F 81% 29.80 in - West 12.7 mph - N/A   Clear
6:00 AM 39.2 °F 30.8 °F 35.6 °F 87% 29.80 in 6.2 mi WSW 15.0 mph - N/A   Mostly Cloudy
7:00 AM 41.0 °F 33.1 °F 35.6 °F 81% 29.77 in - WSW 15.0 mph - N/A   Clear
8:00 AM 41.0 °F 32.2 °F 35.6 °F 81% 29.77 in - WSW 18.4 mph - N/A   Clear
9:00 AM 42.8 °F 34.8 °F 35.6 °F 76% 29.77 in - WSW 17.3 mph - N/A   Clear
10:00 AM 42.8 °F 34.8 °F 35.6 °F 76% 29.77 in - WSW 17.3 mph 31.1 mph N/A   Clear
11:00 AM 44.6 °F 38.4 °F 35.6 °F 71% 29.77 in - WSW 12.7 mph - N/A   Clear
12:00 PM 46.4 °F 39.5 °F 35.6 °F 66% 29.74 in - WSW 17.3 mph - N/A   Clear
2:00 PM 46.4 °F 41.1 °F 35.6 °F 66% 29.68 in 6.2 mi WSW 11.5 mph - N/A   Mostly Cloudy
3:00 PM 46.4 °F 41.1 °F 35.6 °F 66% 29.65 in 6.2 mi SW 11.5 mph - N/A   Mostly Cloudy
4:00 PM 44.6 °F 39.7 °F 35.6 °F 71% 29.59 in - SW 9.2 mph - N/A   Clear
5:00 PM 42.8 °F 36.2 °F 32.0 °F 66% 29.56 in - SW 12.7 mph - N/A   Clear
6:00 PM 41.0 °F 35.2 °F 33.8 °F 76% 29.53 in - SSW 9.2 mph - N/A   Clear
7:00 PM 41.0 °F 36.4 °F 35.6 °F 81% 29.47 in 6.2 mi SSE 6.9 mph - N/A   Overcast
8:00 PM 41.0 °F 34.7 °F 37.4 °F 87% 29.47 in 6.2 mi SSE 10.4 mph - N/A Rain Light Rain
9:00 PM 39.2 °F 33.0 °F 37.4 °F 93% 29.42 in 6.2 mi SSE 9.2 mph - N/A Rain Light Rain
10:00 PM 39.2 °F 34.2 °F 37.4 °F 93% 29.36 in 6.2 mi SSE 6.9 mph - N/A Rain Light Rain
11:00 PM 39.2 °F 34.2 °F 35.6 °F 87% 29.33 in 6.2 mi SSE 6.9 mph - N/A   Mostly Cloudy